Regional Weather Roundup
Issued by NWS Lake Charles, LA

Home | Current Version | Previous Version | Text Only | Print | Product List | Glossary On
Versions: 1 2 3 4 5 6 7 8 9 10 11 12 13 14 15 16 17 18 19 20 21 22 23 24 25 26 27 28 29 30 31 32 33 34 35 36 37 38 39 40 41 42 43 44 45 46 47 48 49 50
000
ASUS44 KLCH 241810
RWRLCH
RWRLCH
REGIONAL WEATHER ROUNDUP
NATIONAL WEATHER SERVICE LAKE CHARLES LA
100 PM CDT THU JUL 24 2014

Note: "fair" indicates few or no clouds below 12,000 feet with no
significant weather and/or obstructions to visibility.


ACROSS SOUTHEAST TEXAS

CITY           SKY/WX    TMP DP  RH WIND       PRES   REMARKS
BEAUMONT       MOSUNNY   87  73  62 NW6       30.01S
BEAUMONT CITY    N/A     86  73  64 N3        30.02S
ORANGE         PTCLDY    86  73  65 NW5       30.03R
JASPER         SUNNY     85  69  59 NW8       30.04F
$$

ACROSS CENTRAL LOUISIANA

CITY           SKY/WX    TMP DP  RH WIND       PRES   REMARKS
LEESVILLE      MOSUNNY   84  72  65 N8        30.02F
FULLERTON        N/A     88  72  58 CALM      29.99S
ALEXANDRIA INT MOSUNNY   86  72  62 W3        30.00F
ESLER FIELD    PTSUNNY   88  72  58 VRB5      30.02S
DERIDDER       MOCLDY    83  72  69 N5        30.04S
OAKDALE        MOCLDY    87  75  68 N5        30.01S
OPELOUSAS        N/A     86  73  65 CALM      30.01R
$$

ACROSS SOUTHWEST AND SOUTH CENTRAL LOUISIANA

CITY           SKY/WX    TMP DP  RH WIND       PRES   REMARKS
SULPHUR        PTCLDY    87  74  64 N3        30.02R
LAKE CHARLES   MOSUNNY   87  72  60 N8        30.01S
CHENNAULT INT  PTSUNNY   86  73  66 NE3       30.02S
CAMERON PHI    PTCLDY    84  75  74 N3        30.02R
DEQUINCY         N/A     84  72  67 NW3       30.01S
JENNINGS         N/A     85  75  72 CALM      30.01R
LAFAYETTE      CLOUDY    88  72  58 CALM      30.00S
NEW IBERIA     PTSUNNY   89  72  56 CALM      30.00F
ABBEVILLE      CLOUDY    88  73  61 CALM      30.00S
PATTERSON      MOSUNNY   88  73  62 E5        30.04S
SALT POINT       N/A     89  77  67 VRB5      30.00S HX 101
$$

SELECTED SITES ACROSS THE REGION

CITY           SKY/WX    TMP DP  RH WIND       PRES   REMARKS
HOUSTON BUSH   MOSUNNY   90  73  57 N6        30.01F
HOUSTON HOBBY  MOSUNNY   88  73  61 NW7       30.00F
GALVESTON      MOSUNNY   88  74  63 NE6       30.03R
COLLEGE STAT   SUNNY     88  71  57 VRB6      30.02F
CONROE         SUNNY     87  71  58 CALM      30.02F
HUNTSVILLE     MOSUNNY   87  70  56 CALM      30.03F
LUFKIN         SUNNY     91  67  44 VRB6      30.03F
SHREVEPORT     CLOUDY    80  70  71 N6        30.05F
MONROE         PTSUNNY   85  73  67 CALM      30.03F
NATCHEZ MS     PTSUNNY   84  73  70 N7        30.03S
BATON ROUGE    PTSUNNY   90  73  57 VRB3      30.00F
N.O. INTL ARPT PTSUNNY   85  74  69 NE8       29.99F
SLIDELL        PTSUNNY   86  73  65 VRB3      29.99F
$$

MARINE REPORTS

STATION/POSITION TIME  TEMP    WIND        PRES    VSBY  WAVE
                       AIR SEA DIR/SP/G                  HT/PER
                 (UTC) (F)     (DEG/KT/KT) (MB)    (MI)  (FT/S)
BUOY 30 S HIGH I 1800   81 87   40/  2/  4 1016.9
SEA RIM ST PARK  1800   85     300/  4/  6 1017.0R
PORT ARTHUR      1800      87  350/  2/  6 1016.6R
SABINE PASS N    1800   84 86   10/  2/  6 1016.6R
TEXAS POINT      1800   83 86  330/  5/  7 1016.8R
CALCASIEU PASS   1800   83 87   10/  4/  6 1017.5R
LK CHARLES BEACH 1800   83 82              1016.9R
MARSH ISLAND     1700   87      80/  3/  4   N/A
FRESH WATER LOCK 1800   83 87   80/  3/  4 1016.2S
AMERADA PASS     1800   85 84  290/  2/  5 1016.0F
$$


USA.gov is the U.S. government's official web portal to all federal, state and local government web resources and services.